Regional Weather Roundup
Issued by NWS

Home | Current Version | Previous Version | Graphics & Text | Print | Product List | Glossary On
Versions: 1 2 3 4 5 6 7 8 9 10 11 12 13 14 15 16 17 18 19 20 21 22 23 24 25 26 27 28 29 30 31 32 33 34 35 36 37 38 39 40 41 42 43 44 45 46 47 48 49 50
323
ASUS43 KDMX 230901
RWRIA

WEATHER ROUNDUP FOR IOWA
NATIONAL WEATHER SERVICE DES MOINES IA
400 AM CDT FRI JUN 23 2017

NOTE: "FAIR" INDICATES FEW OR NO CLOUDS BELOW 12,000 FEET WITH NO
SIGNIFICANT WEATHER AND/OR OBSTRUCTIONS TO VISIBILITY.

* - THESE STATIONS ARE NOT NWS STATIONS...THUS NOT UNDER NWS
QUALITY CONTROL.  THEY ALSO DO NOT REPORT WEATHER SUCH
AS PRECIPITATION OR FOG.

IAZ001>003-012>014-020>022-031>034-043>046-231000-
   NORTHWEST IOWA

CITY           SKY/WX    TMP DP  RH WIND       PRES   REMARKS
CARROLL *      PTCLDY    61  55  82 NW3       29.78F
CHEROKEE *     CLEAR     53  53 100 CALM      29.81F
DENISON *      CLEAR     61  54  77 CALM      29.81F
LE MARS *      CLEAR     54  52  94 W5        29.85R
ORANGE CITY *  CLEAR     55  52  88 W6        29.83F
SHELDON *      CLEAR     52  50  93 CALM      29.80F
SIOUX CITY       N/A    N/A N/A N/A MISG      29.84S
SPENCER        CLEAR     52  50  93 NW7       29.80F
STORM LAKE *   CLEAR     57  50  77 NW9       29.81F
$$

IAZ055>058-069>071-079>083-090>094-231000-
   SOUTHWEST IOWA

CITY           SKY/WX    TMP DP  RH WIND       PRES   REMARKS
ATLANTIC *     PTCLDY    63  61  94 N7        29.78F
AUDUBON *      CLEAR     63  57  82 N8        29.79F
CLARINDA *     CLOUDY    68  61  77 NE10G18   29.77F
COUNCIL BLFS * CLEAR     64  61  88 N10       29.79F
CRESTON *      MOCLDY    66  63  88 N9        29.79R
HARLAN  *      CLEAR     64  59  82 N8        29.81F
LAMONI         CLOUDY    69  66  90 N14       29.76R
RED OAK *      PTCLDY    66  61  82 N7        29.77F
SHENANDOAH *   MOCLDY    68  63  83 NE8       29.77F
$$

IAZ047>049-059>061-072>074-084-231000-
   CENTRAL IOWA

CITY           SKY/WX    TMP DP  RH WIND       PRES   REMARKS
AMES           MOCLDY    66  64  93 N8        29.75F
ANKENY *       CLOUDY    66  63  88 N9G16     29.76S
BOONE *        CLOUDY    63  61  94 NW9       29.76F
CHARITON *     CLOUDY    70  68  94 N14       29.75R
DES MOINES     CLOUDY    68  64  87 N10G22    29.74S
GRINNELL*      CLOUDY    69  64  86 N8        29.77R
KNOXVILLE *    CLOUDY    70  68  94 N10       29.73R
MARSHALLTOWN   MOCLDY    67  65  93 N8        29.74F
NEWTON *       CLOUDY    68  66  94 N6        29.77R
PELLA *        CLOUDY    69  68  96 N6        29.75R
PERRY *          N/A     64  62  92 CALM      29.77F
$$

IAZ004>006-015-016-023>025-035-036-231000-
   NORTH CENTRAL IOWA

CITY           SKY/WX    TMP DP  RH WIND       PRES   REMARKS
ALGONA *       CLEAR     55  55 100 W7        29.79F
ESTHERVILLE    CLEAR     54  52  93 W5        29.79F
FORT DODGE *   PTCLDY    61  54  77 NW5       29.79F
MASON CITY     CLEAR     58  56  93 NW6       29.79S
FOREST CITY *    N/A     59  52  77 NW7       29.77F
WEBSTER CITY * CLOUDY    61  57  88 N6        29.76F
IOWA FALLS *     N/A     64  62  94 NW6       29.77S
$$

IAZ007>011-017>019-026>030-037>042-050>054-066-231000-
   NORTHEAST IOWA

CITY           SKY/WX    TMP DP  RH WIND       PRES   REMARKS
CEDAR RAPIDS   CLOUDY    67  67 100 N9        29.71R
CHARLES CITY * MOCLDY    64  64 100 CALM      29.76F FOG
CLINTON *      TSTM      68  67  96 W10       29.67F
DECORAH *      PTCLDY    63  63 100 CALM      29.73F FOG
DUBUQUE        CLOUDY    65  64  97 N10       29.72R
MONTICELLO *   CLOUDY    66  64  94 N9G17     29.70R
OELWEIN *      PTCLDY    66  66 100 N5        29.74F
WATERLOO       CLOUDY    65  63  93 N7        29.73F
$$

IAZ064-065-067-068-078-231000-
   EAST CENTRAL IOWA

CITY           SKY/WX    TMP DP  RH WIND       PRES   REMARKS
DAVENPORT      CLOUDY    70  68  93 W10       29.67F THUNDER
IOWA CITY      CLOUDY    72  66  81 N13       29.71R
MT. PLEASANT * DRIZZLE   74  71  91 NW10      29.68R
MUSCATINE *    LGT RAIN  73  70  88 NW10G25   29.67R
QUAD CITIES    TSTM      75  72  90 NW8       29.67R VSB 3/4
$$

IAZ062-063-075>077-085>089-095>099-231000-
   SOUTHEAST IOWA

CITY           SKY/WX    TMP DP  RH WIND       PRES   REMARKS
BURLINGTON     CLOUDY    75  74  96 S10       29.64F
FAIRFIELD *    CLOUDY    72  68  88 MISG      29.69S
FORT MADISON * CLOUDY    75  73  94 SW8       29.67R
KEOKUK *       PTCLDY    75  73  94 SW8       29.65F
OSKALOOSA *    RAIN      69  67  93 N8        29.72F
OTTUMWA        RAIN      69  69 100 NW7       29.71F FOG
WASHINGTON *   CLOUDY    72  70  94 N20G31    29.68R
$$

ABBREVIATIONS USED IN REMARKS
   TC - TEMPERATURES IN CELSIUS
  WCI - WIND CHILL INDEX
   HX - HEAT INDEX
  VSB - VISIBILITY
$$





USA.gov is the U.S. government's official web portal to all federal, state and local government web resources and services.